Change the Weather History Date:

Thursday, August 1, 2013

  Actual Average Record
Temperature  
Mean Temperature 65 °F -  
Max Temperature 75 °F 65 °F 84 °F (1961)
Min Temperature 57 °F 51 °F 41 °F (1957)
Growing Degree Days 15 (Base 50)    
Moisture  
Dew Point 59 °F    
Average Humidity 87    
Maximum Humidity 100    
Minimum Humidity 62    
Precipitation  
Precipitation 0.00 in - - ()
Sea Level Pressure  
Sea Level Pressure 30.00 in    
Wind  
Wind Speed 5 mph (SSE)    
Max Wind Speed 12 mph    
Max Gust Speed -    
Visibility 10 miles    
Events      
Averages and records for this station are not official NWS values.
T = Trace of Precipitation, MM = Missing Value Source: NWS Daily Summary

Daily Weather History Graph

Daily Weather History Graph

Search for Another Location

Airport or City:

Trip Planner

Search our weather history database for the weather conditions in past years. The results will help you decide how hot, cold, wet, or windy it might be!

Date:

Astronomy

Aug. 01, 2013 Rise Set
Actual Time 4:54 AM AKDT 8:50 PM AKDT
Civil Twilight 4:07 AM AKDT 9:36 PM AKDT
Nautical Twilight 2:59 AM AKDT 10:44 PM AKDT
Astronomical Twilight 1:25 AM AKDT 12:20 AM AKDT
Moon 12:31 AM AKDT (8/1) 5:12 PM AKDT (8/1)
Length of Visible Light 17h 29m
Length of Day
15h 55m
Waning Crescent, 22% of the Moon is Illuminated
Aug 1
Waning Crescent
Aug 6
New
Aug 14
First Quarter
Aug 20
Full
Aug 28
Last Quarter

Hourly Weather History & Observations

Time (AKDT) Temp. Dew Point Humidity Pressure Visibility Wind Dir Wind Speed Gust Speed Precip Events Conditions
12:53 AM 59.0 °F 59.0 °F 100% 30.03 in 10.0 mi South 3.5 mph - N/A   Clear
1:53 AM 59.0 °F 59.0 °F 100% 30.02 in 10.0 mi SSE 5.8 mph - N/A   Clear
2:53 AM 57.9 °F 57.9 °F 100% 30.02 in 10.0 mi South 3.5 mph - N/A   Clear
3:53 AM 57.0 °F 57.0 °F 100% 30.01 in 10.0 mi Calm Calm - N/A   Clear
4:53 AM 57.0 °F 57.0 °F 100% 30.01 in 10.0 mi South 3.5 mph - N/A   Clear
5:53 AM 57.0 °F 57.0 °F 100% 30.02 in 10.0 mi SSE 3.5 mph - N/A   Clear
6:10 AM 57.2 °F 57.2 °F 100% 30.02 in 10.0 mi SE 4.6 mph - N/A   Clear
6:20 AM 57.2 °F 57.2 °F 100% 30.02 in 10.0 mi SE 4.6 mph - N/A   Partly Cloudy
6:53 AM 60.1 °F 60.1 °F 100% 30.02 in 10.0 mi ESE 4.6 mph - N/A   Scattered Clouds
7:53 AM 62.1 °F 60.1 °F 93% 30.02 in 10.0 mi ESE 4.6 mph - N/A   Partly Cloudy
8:53 AM 64.9 °F 61.0 °F 87% 30.01 in 10.0 mi ESE 3.5 mph - N/A   Clear
9:53 AM 69.1 °F 62.1 °F 78% 30.02 in 10.0 mi NNW 6.9 mph - N/A   Clear
10:53 AM 70.0 °F 60.1 °F 71% 30.01 in 10.0 mi NW 9.2 mph - N/A   Clear
11:53 AM 72.0 °F 59.0 °F 64% 30.01 in 10.0 mi NNW 8.1 mph - N/A   Clear
12:53 PM 71.1 °F 57.9 °F 63% 30.00 in 10.0 mi NW 10.4 mph - N/A   Clear
1:53 PM 72.0 °F 59.0 °F 64% 30.00 in 10.0 mi WNW 9.2 mph - N/A   Clear
2:53 PM 73.0 °F 60.1 °F 64% 29.99 in 10.0 mi NW 6.9 mph - N/A   Clear
3:53 PM 73.9 °F 60.1 °F 62% 29.98 in 10.0 mi Calm Calm - N/A   Clear
4:53 PM 72.0 °F 61.0 °F 68% 29.97 in 10.0 mi ESE 11.5 mph - N/A   Clear
5:53 PM 73.0 °F 61.0 °F 66% 29.96 in 10.0 mi ESE 10.4 mph - N/A   Clear
6:53 PM 69.1 °F 63.0 °F 81% 29.97 in 10.0 mi ESE 11.5 mph - N/A   Clear
7:53 PM 64.0 °F 61.0 °F 90% 29.98 in 10.0 mi SE 6.9 mph - N/A   Clear
8:53 PM 60.1 °F 59.0 °F 96% 29.99 in 10.0 mi SSE 5.8 mph - N/A   Clear
9:53 PM 57.9 °F 57.9 °F 100% 30.00 in 10.0 mi SSE 6.9 mph - N/A   Clear
10:04 PM 57.2 °F 57.2 °F 100% 30.00 in 10.0 mi SSE 5.8 mph - N/A   Scattered Clouds
10:18 PM 57.2 °F 57.2 °F 100% 30.00 in 10.0 mi SSE 6.9 mph - N/A   Mostly Cloudy
10:53 PM 57.0 °F 57.0 °F 100% 30.01 in 10.0 mi SSE 5.8 mph - N/A   Overcast
11:53 PM 57.0 °F 57.0 °F 100% 30.01 in 10.0 mi SSE 6.9 mph - N/A   Overcast